TimeCDT,TemperatureF,Dew PointF,Humidity,Sea Level PressureIn,VisibilityMPH,Wind Direction,Wind SpeedMPH,Gust SpeedMPH,PrecipitationIn,Events,Conditions,WindDirDegrees,DateUTC
12:54 AM,33.1,23.0,66,30.07,8.0,East,8.1,-,N/A,,Overcast,90,2013-03-23 05:54:00
2:54 AM,32.0,24.1,73,30.10,7.0,NNE,4.6,-,N/A,,Overcast,30,2013-03-23 07:54:00
3:54 AM,28.9,23.0,78,30.08,6.0,Calm,Calm,-,N/A,,Haze,0,2013-03-23 08:54:00
4:54 AM,30.9,26.1,82,30.09,6.0,North,4.6,-,N/A,,Haze,360,2013-03-23 09:54:00
5:54 AM,30.9,25.0,79,30.10,6.0,NNE,4.6,-,N/A,,Haze,20,2013-03-23 10:54:00
6:54 AM,30.9,25.0,79,30.12,5.0,NNE,4.6,-,N/A,,Haze,30,2013-03-23 11:54:00
8:54 AM,30.9,25.0,79,30.12,4.0,NNE,11.5,-,N/A,,Haze,20,2013-03-23 13:54:00
9:54 AM,32.0,24.1,73,30.15,5.0,North,10.4,-,N/A,,Haze,10,2013-03-23 14:54:00
10:54 AM,33.1,21.9,64,30.15,5.0,NNE,11.5,-,N/A,,Haze,20,2013-03-23 15:54:00
11:54 AM,35.1,21.9,59,30.14,5.0,North,8.1,-,N/A,,Haze,10,2013-03-23 16:54:00
12:54 PM,36.0,21.9,57,30.13,5.0,ENE,8.1,-,N/A,,Haze,60,2013-03-23 17:54:00
1:54 PM,37.0,23.0,57,30.11,2.5,NE,12.7,-,0.00,Snow,Light Snow,40,2013-03-23 18:54:00
2:11 PM,37.4,23.0,56,30.09,3.0,NE,15.0,-,0.00,,Haze,40,2013-03-23 19:11:00
2:19 PM,35.6,23.0,60,30.08,4.0,NE,13.8,-,0.00,,Haze,40,2013-03-23 19:19:00
2:54 PM,36.0,25.0,64,30.09,4.0,North,17.3,-,0.00,,Haze,10,2013-03-23 19:54:00
3:04 PM,35.6,24.8,65,30.07,2.0,NNE,16.1,-,N/A,,Haze,20,2013-03-23 20:04:00
3:17 PM,35.6,24.8,65,30.07,4.0,NNE,16.1,-,N/A,,Haze,30,2013-03-23 20:17:00
3:44 PM,35.6,24.8,65,30.07,1.8,North,16.1,-,0.00,Snow,Light Snow,10,2013-03-23 20:44:00
3:54 PM,35.1,26.1,70,30.09,2.0,North,18.4,-,0.00,,Haze,10,2013-03-23 20:54:00
4:05 PM,33.8,26.6,75,30.07,1.0,North,18.4,-,0.00,Snow,Light Snow,10,2013-03-23 21:05:00
4:13 PM,33.8,28.4,81,30.07,0.5,North,16.1,-,0.00,Snow,Snow,10,2013-03-23 21:13:00
4:41 PM,33.8,28.4,81,30.07,0.5,North,16.1,-,0.00,Snow,Snow,10,2013-03-23 21:41:00
4:54 PM,33.1,28.0,82,30.10,0.8,NNE,16.1,-,0.00,Snow,Light Snow,20,2013-03-23 21:54:00
5:25 PM,32.0,28.4,87,30.08,0.2,NNE,15.0,-,0.00,Fog-Snow,Light Snow,20,2013-03-23 22:25:00
5:54 PM,32.0,28.0,85,30.11,0.5,NNE,10.4,-,0.00,Fog-Snow,Light Snow,20,2013-03-23 22:54:00
6:01 PM,32.0,28.4,87,30.09,0.5,NNE,11.5,-,0.00,Fog-Snow,Light Snow,20,2013-03-23 23:01:00
6:37 PM,32.0,28.4,87,30.09,0.5,NNE,15.0,-,0.00,Fog-Snow,Light Snow,20,2013-03-23 23:37:00
6:54 PM,32.0,28.0,85,30.11,0.2,NNE,11.5,-,0.00,Fog-Snow,Light Snow,20,2013-03-23 23:54:00
6:57 PM,32.0,28.4,87,30.09,0.5,North,11.5,-,0.00,Fog-Snow,Light Snow,10,2013-03-23 23:57:00
7:18 PM,32.0,28.4,87,30.10,0.5,North,12.7,-,0.00,Fog-Snow,Light Snow,10,2013-03-24 00:18:00
7:27 PM,30.2,28.4,93,30.10,1.0,North,11.5,-,0.00,Snow,Light Snow,10,2013-03-24 00:27:00
7:36 PM,30.2,28.4,93,30.11,2.0,North,11.5,-,0.00,,Overcast,10,2013-03-24 00:36:00
7:46 PM,32.0,26.6,80,30.11,4.0,North,11.5,-,0.00,,Haze,10,2013-03-24 00:46:00
7:54 PM,32.0,27.0,82,30.13,4.0,North,11.5,-,0.00,,Haze,10,2013-03-24 00:54:00
8:06 PM,32.0,28.4,87,30.11,2.0,North,9.2,-,0.00,Snow,Light Snow,10,2013-03-24 01:06:00
8:14 PM,32.0,28.4,87,30.11,1.5,North,9.2,-,0.00,Snow,Light Snow,360,2013-03-24 01:14:00
8:54 PM,30.9,28.0,89,30.14,1.2,NNE,10.4,-,0.00,Snow,Light Snow,20,2013-03-24 01:54:00
9:04 PM,30.2,28.4,93,30.12,1.2,North,8.1,-,0.00,Snow,Light Snow,10,2013-03-24 02:04:00
9:54 PM,30.0,27.0,88,30.13,1.5,NNE,11.5,-,0.00,Snow,Light Snow,30,2013-03-24 02:54:00
10:08 PM,30.2,26.6,86,30.11,2.0,NNE,11.5,-,0.00,Snow,Light Snow,20,2013-03-24 03:08:00
10:24 PM,30.2,26.6,86,30.11,4.0,NNE,11.5,-,0.00,,Overcast,20,2013-03-24 03:24:00
10:36 PM,30.2,26.6,86,30.11,3.0,NNE,10.4,-,0.00,,Overcast,20,2013-03-24 03:36:00
10:54 PM,30.0,27.0,88,30.13,4.0,North,9.2,-,0.00,,Overcast,360,2013-03-24 03:54:00
11:10 PM,30.2,26.6,86,30.10,4.0,North,10.4,-,N/A,,Overcast,360,2013-03-24 04:10:00
11:54 PM,30.9,27.0,85,30.11,4.0,North,16.1,-,N/A,,Overcast,10,2013-03-24 04:54:00